User: anonymous   Login
Location: Namasale
(1.5000°N, 32.6167°E)
Time: 02:05:44
(UTC+00:00)
Language:

Cosmos 1992 Rocket - Orbit

View from above orbital plane
View from above orbital plane
View from above satellite
View from above satellite

Ground track
Ground track

The orbit data is extracted from the following two-line orbital elements,

1 19770U 89005B   20192.36373569  .00000060  00000-0  28141-4 0  9998
2 19770  74.0446 146.4509 0005862 300.3146 173.7350 14.38838144647522
Epoch (UTC): 10 July 2020 08:43:46
Eccentricity: 0.0005862
inclination: 74.0446°
perigee height: 758 km
apogee height: 766 km
right ascension of ascending node: 146.4509°
argument of perigee: 300.3146°
revolutions per day: 14.38838144
mean anomaly at epoch: 173.7350°
orbit number at epoch: 64752

The dashed part of the orbit path shows where the satellite is in the earth's shadow,  

DLR